This demonstration page uses our WeatherBlox Daily Observations layout. Learn more.

Left ArrowRight Arrow

Hourly Observations for June 10, 2017

Temp ( °F °C ) Dew Point ( °F °C ) Humidity (%) Winds ( mph kmh ) Pressure ( in mb ) Visibility ( mi km ) Precip ( " mm )
12:53 am 00:53 Cloudy 56 13.3 34 1.1 44 44 SW 8 13 29.53 1000 10 16 0.00 0.00
1:53 am 01:53 Mostly Cloudy 54 12.2 33 0.6 45 45 SW 9 15 29.54 1000 10 16 0.00 0.00
2:53 am 02:53 Mostly Cloudy 53 11.7 32 0 45 45 SW 9 15 29.54 1000 10 16 0.00 0.00
3:53 am 03:53 Clear 49 9.4 34 1.1 56 56 undefined N/A 29.54 1000 10 16 0.00 0.00
4:53 am 04:53 Clear 48 8.9 34 1.1 58 58 SW 14 22 29.54 1001 10 16 0.00 0.00
5:53 am 05:53 Sunny 45 7.2 35 1.7 68 68 SW 13 20 29.57 1001 10 16 0.00 0.00
6:53 am 06:53 Sunny 50 10 37 2.8 61 61 SW 14 22 29.56 1001 10 16 0.00 0.00
7:53 am 07:53 Sunny 57 13.9 33 0.6 41 41 WSW 18 30 29.54 1000 10 16 0.00 0.00
8:53 am 08:53 Sunny 61 16.1 32 0 34 34 WSW 20 31 29.54 1000 10 16 0.00 0.00
9:53 am 09:53 Sunny 64 17.8 31 -0.6 29 29 WSW 22 35 29.54 1000 10 16 0.00 0.00
10:53 am 10:53 Sunny 67 19.4 28 -2.2 23 23 W 18 30 29.53 1000 10 16 0.00 0.00
11:53 am 11:53 Sunny 68 20 27 -2.8 21 21 WSW 25 41 29.53 1000 10 16 0.00 0.00
12:53 pm 12:53 Partly Cloudy 67 19.4 27 -2.8 22 22 W 24 39 29.52 1000 10 16 0.00 0.00
1:53 pm 13:53 Mostly Cloudy 71 21.7 29 -1.7 21 21 WSW 18 30 29.51 999 10 16 0.00 0.00
2:53 pm 14:53 Mostly Sunny 69 20.6 28 -2.2 22 22 W 20 31 29.51 999 10 16 0.00 0.00
3:53 pm 15:53 Mostly Sunny 71 21.7 27 -2.8 19 19 W 23 37 29.52 1000 10 16 0.00 0.00
4:53 pm 16:53 Mostly Sunny 69 20.6 27 -2.8 21 21 W 16 26 29.52 1000 10 16 0.00 0.00
5:53 pm 17:53 Sunny 71 21.7 27 -2.8 19 19 W 22 35 29.54 1000 10 16 0.00 0.00
6:53 pm 18:53 Sunny 69 20.6 26 -3.3 20 20 W 15 24 29.54 1000 10 16 0.00 0.00
7:53 pm 19:53 Sunny 69 20.6 27 -2.8 21 21 W 14 22 29.54 1000 10 16 0.00 0.00
8:53 pm 20:53 Sunny 64 17.8 28 -2.2 26 26 W 15 24 29.57 1001 10 16 0.00 0.00
9:53 pm 21:53 Clear 59 15 30 -1.1 33 33 W 12 19 29.60 1002 10 16 0.00 0.00
10:53 pm 22:53 Mostly Cloudy 54 12.2 34 1.1 47 47 SSW 9 15 29.64 1004 10 16 0.00 0.00
11:53 pm 23:53 Cloudy 55 12.8 33 0.6 44 44 W 7 11 29.66 1004 10 16 0.00 0.00

Powered by AerisWeather